Home   Weather   Wilhelmshaven   Past weeks

Flag for Germany Past Weather in Wilhelmshaven, Lower Saxony, Germany — Yesterday and Last 2 Weeks

Now
45 °F

Partly sunny.


Feels Like: 37 °F
Forecast: 46 / 53 °F
Wind: 20 mph from East

Location: Wittmundhaven

Current Time: May 1, 2017 at 8:34:29 am

Latest Report: May 1, 2017 at 7:20 am


Visibility: N/A

Pressure: 29.86 "Hg

Humidity: 71%

Dew Point: 36 °F

Location of WilhelmshavenLocation

Past Weather in Wilhelmshaven — Graph

°F

Wilhelmshaven Temperature Yesterday

Maximum temperature yesterday: 61 °F (at 5:20 pm)
Minimum temperature yesterday: 36 °F (at 2:20 am)
Average temperature yesterday: 48 °F

High & Low Weather Summary for the Past Weeks

 TemperatureHumidityPressure
High61 °F (Apr 30, 5:20 pm)100% (Apr 17, 4:20 am)30.63 "Hg (Apr 17, 4:20 am)
Low27 °F (Apr 20, 6:20 am)31% (Apr 30, 5:20 pm)29.59 "Hg (Apr 25, 4:34 am)
Average43 °F74%30.09 "Hg
* Reported Apr 16 7:20 am — May 1 7:20 am, Wilhelmshaven, Weather by CustomWeather, © 2017

Note: Actual official high and low records may vary slightly from our data, if they occured in-between our weather recording intervals... More about our weather records

Advertising

Wilhelmshaven Weather History for the Previous 24 Hours

Scroll right to see more
 ConditionsComfort  
Time TempWeatherWind HumidityBarometerVisibility
7:20 am
Mon, May 1
45 °FPartly sunny.20 mph71%29.86 "HgN/A
6:20 am45 °FPartly sunny.17 mph71%29.86 "HgN/A
5:20 am45 °FPassing clouds.18 mph66%29.83 "HgN/A
5:01 am45 °FPassing clouds.18 mph66%29.83 "HgN/A
4:20 am45 °FQuite cool.21 mph66%29.83 "Hg6 mi
3:20 am46 °FCool.18 mph57%29.86 "Hg6 mi
2:20 am46 °FCool.18 mph57%29.86 "Hg6 mi
1:20 am48 °FCool.21 mph58%29.86 "Hg6 mi
12:20 am50 °FCool.20 mph54%29.86 "Hg6 mi
11:20 pm
Sun, Apr 30
52 °FCool.17 mph50%29.86 "HgN/A
10:20 pm52 °FCool.15 mph54%29.86 "Hg6 mi
9:20 pm54 °FCool.12 mph44%29.86 "HgN/A
8:20 pm55 °FRefreshingly cool.13 mph38%29.86 "HgN/A
7:20 pm59 °FRefreshingly cool.20 mph34%29.86 "HgN/A
6:20 pm59 °FScattered clouds.22 mph34%29.86 "HgN/A
5:20 pm61 °FScattered clouds.23 mph31%29.89 "HgN/A
4:20 pm59 °FPartly sunny.23 mph34%29.92 "HgN/A
3:20 pm59 °FPartly sunny.23 mph39%29.92 "HgN/A
2:20 pm57 °FScattered clouds.18 mph39%29.95 "HgN/A
1:20 pm57 °FPartly sunny.21 mph36%29.98 "HgN/A
12:20 pm55 °FScattered clouds.18 mph38%30.01 "HgN/A
11:20 am54 °FPassing clouds.20 mph44%30.01 "HgN/A
10:20 am52 °FPassing clouds.15 mph54%30.04 "HgN/A
9:20 am48 °FPassing clouds.13 mph62%30.07 "HgN/A
8:20 am43 °FPassing clouds.13 mph76%30.07 "HgN/A
Weather by CustomWeather, © 2017

See weather overviewHow to use our weather pages